Zurück zum Katalog

BLOCK DM-SL R/B

AktivGTO
NORAD 26452·ROCKET BODY· XX

Gestartet Jul 28, 2000 von Sea Launch Platform

Loading…

TLE

AlterndSource: Space-Track

Epoche: Sep 14, 2026, 10:24 UTC

1 26452U 00043B   26257.43379437 -.00000179  00000-0  00000-0 0  9996
2 26452   1.6347  50.5450 6702087 316.7510   9.2171  2.16744906206539

Verfolge BLOCK DM-SL R/B in Echtzeit mit AllMySat

Download on the App Store